SJX236 VHHH-RCTP

Flight info

Callsign SJX236
Flight time N/A
Altitude 39000
Route DALOL V631 ENVAR M750 EXTRA/N0469F290 M750 TONGA TONGA1A
Aircraft A359/H-SDE2E3GHIJ3J4J5LM1ORWXY/LB1D1

Departure

Time 2026-05-04 03:33
Airport Hong Kong International Airport (VHHH)

Arrival

Time N/A
Airport Taiwan Taoyuan International Airport (RCTP)
Time Latitude Longitude Altitude Speed Heading
2026-05-04 03:15 22.30948 113.91383 42 ft 0 kts 251°
2026-05-04 03:21 22.30951 113.91390 41 ft 2 kts 251°
2026-05-04 03:21 22.30958 113.91411 43 ft 3 kts 251°
2026-05-04 03:22 22.30964 113.91432 41 ft 3 kts 251°
2026-05-04 03:22 22.30969 113.91447 40 ft 3 kts 243°
2026-05-04 03:22 22.30976 113.91461 42 ft 3 kts 212°
2026-05-04 03:22 22.30990 113.91468 41 ft 3 kts 183°
2026-05-04 03:23 22.31009 113.91467 42 ft 3 kts 167°
2026-05-04 03:23 22.31026 113.91462 42 ft 2 kts 161°
2026-05-04 03:23 22.31028 113.91461 42 ft 0 kts 161°
2026-05-04 03:25 22.31022 113.91464 41 ft 4 kts 160°
2026-05-04 03:25 22.30974 113.91482 43 ft 11 kts 160°
2026-05-04 03:25 22.30883 113.91517 42 ft 17 kts 160°
2026-05-04 03:25 22.30753 113.91567 43 ft 22 kts 160°
2026-05-04 03:26 22.30680 113.91594 43 ft 11 kts 160°
2026-05-04 03:26 22.30600 113.91625 43 ft 14 kts 160°
2026-05-04 03:26 22.30519 113.91675 43 ft 13 kts 120°
2026-05-04 03:26 22.30559 113.91736 43 ft 11 kts
2026-05-04 03:27 22.30643 113.91705 43 ft 15 kts 339°
2026-05-04 03:27 22.30751 113.91662 43 ft 18 kts 340°
2026-05-04 03:27 22.30879 113.91614 43 ft 21 kts 343°
2026-05-04 03:27 22.31023 113.91564 43 ft 23 kts 341°
2026-05-04 03:28 22.31181 113.91506 43 ft 25 kts 340°
2026-05-04 03:28 22.31327 113.91450 43 ft 17 kts 341°
2026-05-04 03:28 22.31414 113.91374 44 ft 17 kts 274°
2026-05-04 03:28 22.31376 113.91241 44 ft 20 kts 250°
2026-05-04 03:29 22.31327 113.91085 44 ft 23 kts 250°
2026-05-04 03:29 22.31271 113.90913 43 ft 25 kts 251°
2026-05-04 03:29 22.31215 113.90740 43 ft 23 kts 251°
2026-05-04 03:29 22.31160 113.90571 43 ft 25 kts 250°
2026-05-04 03:30 22.31107 113.90407 40 ft 24 kts 251°
2026-05-04 03:30 22.31051 113.90234 43 ft 25 kts 250°
2026-05-04 03:30 22.30995 113.90058 43 ft 18 kts 251°
2026-05-04 03:30 22.30963 113.89941 43 ft 11 kts 265°
2026-05-04 03:31 22.30986 113.89897 43 ft 0 kts 331°
2026-05-04 03:31 22.30992 113.89893 41 ft 4 kts 331°
2026-05-04 03:31 22.31046 113.89870 43 ft 12 kts 340°
2026-05-04 03:32 22.31108 113.89857 43 ft 3 kts 17°
2026-05-04 03:32 22.31125 113.89891 43 ft 8 kts 71°
2026-05-04 03:32 22.31164 113.90014 43 ft 40 kts 71°
2026-05-04 03:32 22.31333 113.90536 41 ft 105 kts 71°
2026-05-04 03:33 22.31637 113.91476 46 ft 159 kts 71°
2026-05-04 03:33 22.32022 113.92665 608 ft 166 kts 70°
2026-05-04 03:33 22.32399 113.93839 1386 ft 171 kts 70°
2026-05-04 03:33 22.32810 113.95121 1712 ft 190 kts 70°
2026-05-04 03:34 22.33247 113.96520 2131 ft 203 kts 72°
2026-05-04 03:34 22.33566 113.98023 2701 ft 207 kts 79°
2026-05-04 03:34 22.33820 113.99570 3264 ft 212 kts 80°
2026-05-04 03:34 22.34074 114.01166 3749 ft 219 kts 80°
2026-05-04 03:35 22.34322 114.02818 4202 ft 227 kts 83°
2026-05-04 03:35 22.34295 114.04548 4667 ft 236 kts 101°
2026-05-04 03:35 22.33695 114.06201 5267 ft 238 kts 125°
2026-05-04 03:35 22.32579 114.07498 5920 ft 237 kts 144°
2026-05-04 03:36 22.31106 114.08400 6293 ft 251 kts 162°
2026-05-04 03:36 22.29389 114.08791 6814 ft 254 kts 180°
2026-05-04 03:36 22.27597 114.08806 7306 ft 264 kts 185°
2026-05-04 03:36 22.25713 114.08752 7779 ft 276 kts 185°
2026-05-04 03:37 22.23773 114.08709 8440 ft 281 kts 185°
2026-05-04 03:37 22.21808 114.08677 9166 ft 284 kts 185°
2026-05-04 03:37 22.19823 114.08653 9888 ft 287 kts 186°
2026-05-04 03:37 22.17799 114.08837 10400 ft 303 kts 172°
2026-05-04 03:38 22.15825 114.09869 10642 ft 333 kts 144°
2026-05-04 03:38 22.14327 114.11877 10912 ft 357 kts 121°
2026-05-04 03:38 22.13189 114.14329 11236 ft 371 kts 118°
2026-05-04 03:38 22.12065 114.16850 11754 ft 376 kts 118°
2026-05-04 03:39 22.10903 114.19394 12321 ft 380 kts 119°
2026-05-04 03:39 22.09715 114.21946 12890 ft 383 kts 120°
2026-05-04 03:39 22.08485 114.24510 13462 ft 385 kts 123°
2026-05-04 03:39 22.06870 114.26786 13998 ft 380 kts 142°
2026-05-04 03:40 22.04816 114.28562 14508 ft 379 kts 148°
2026-05-04 03:40 22.02670 114.30235 15012 ft 382 kts 149°
2026-05-04 03:40 22.00508 114.31916 15521 ft 384 kts 149°
2026-05-04 03:40 21.98335 114.33614 16007 ft 388 kts 149°
2026-05-04 03:41 21.96172 114.35311 16437 ft 392 kts 149°
2026-05-04 03:41 21.93955 114.37058 16855 ft 397 kts 149°
2026-05-04 03:41 21.91712 114.38832 17215 ft 403 kts 149°
2026-05-04 03:41 21.89441 114.40635 17573 ft 409 kts 149°
2026-05-04 03:42 21.87141 114.42469 17925 ft 414 kts 149°
2026-05-04 03:42 21.84818 114.44331 18279 ft 419 kts 149°
2026-05-04 03:42 21.82471 114.46219 18586 ft 423 kts 148°
2026-05-04 03:42 21.80108 114.48127 18903 ft 427 kts 148°
2026-05-04 03:43 21.77725 114.50059 19193 ft 431 kts 148°
2026-05-04 03:43 21.75326 114.52010 19495 ft 434 kts 148°
2026-05-04 03:43 21.72909 114.53979 19785 ft 438 kts 148°
2026-05-04 03:43 21.70475 114.55965 20049 ft 441 kts 148°
2026-05-04 03:44 21.68019 114.57971 20321 ft 445 kts 148°
2026-05-04 03:44 21.65545 114.59999 20557 ft 449 kts 147°
2026-05-04 03:44 21.63049 114.62048 20779 ft 453 kts 147°
2026-05-04 03:44 21.60533 114.64118 20989 ft 458 kts 147°
2026-05-04 03:45 21.57995 114.66211 21184 ft 462 kts 147°
2026-05-04 03:45 21.55432 114.68325 21367 ft 467 kts 147°
2026-05-04 03:45 21.52846 114.70460 21539 ft 471 kts 147°
2026-05-04 03:45 21.50237 114.72613 21696 ft 476 kts 147°
2026-05-04 03:46 21.47598 114.74790 21858 ft 480 kts 147°
2026-05-04 03:46 21.44938 114.76986 21975 ft 485 kts 147°
2026-05-04 03:46 21.42253 114.79203 22101 ft 489 kts 147°
2026-05-04 03:46 21.39546 114.81438 22226 ft 493 kts 147°
2026-05-04 03:47 21.36811 114.83692 22310 ft 498 kts 147°